{"data":{"norad_id":56320,"epoch":"2026-05-25T00:09:29.373408Z","epoch_age_seconds":68286,"freshness":"FRESH","line1":"1 56320U 23058D   26145.00658997 -.00001304  00000+0 -86308-4 0  9994","line2":"2 56320  97.4473 144.9076 0002204  96.5066 263.6412 15.05656506169260","mean_motion":15.05656506,"eccentricity":0.0002204,"inclination_deg":97.4473,"raan_deg":144.9076,"arg_perigee_deg":96.5066,"mean_anomaly_deg":263.6412,"bstar":-8.6308e-5,"rev_number":16926,"period_min":95.639343652529,"perigee_km":547.96434834624,"apogee_km":551.01804685574,"semimajor_km":6927.628197601,"source":"CELESTRAK","updated_at":"2026-05-25T13:38:17.999948Z"}}